C/2018 O1 ( ATLAS )

Japanese version
Home page
Updated on September 23, 2018

---------------------------------------------------------------------

* Profile

Discovery Date July 22, 2018
Magnitude 18.7 mag
Discoverer Asteroid Terrestrial-impact Last Alert System (ATLAS) search program

* Orbital Elements

Epoch 2018 Aug. 30.0 TT = JDT 2458360.5
T 2018 Aug. 31.57289 TT                                 MPCW
q   1.5581647            (2000.0)            P               Q
n   0.00669692     Peri.  162.50508     +0.23044002     -0.86926506
a  27.8752945      Node    87.61932     -0.93693217     -0.07683122
e   0.9441023      Incl.  154.04096     -0.26278415     -0.48833925
P 147
From 323 observations 2018 July 15-Aug. 17, mean residual 0".5.

* Magnitudes Graph

        m1 = 16.5 + 5 log d + 10.0 log r

---------------------------------------------------------------------

The orbital elements are published on M.P.E.C. 2018-S50.
The magnitudes graphs are made with Comet for Windows.

---------------------------------------------------------------------

Copyright(C) Seiichi Yoshida (comet@aerith.net). All rights reserved.